Weather History for Grayling, MI

Change the Weather History Date:

Sunday, July 21, 2013

  Actual Average (KHTL) Record (KHTL)
Temperature  
Mean Temperature 56 °F 67 °F  
Max Temperature 76 °F 80 °F 99 °F (1926)
Min Temperature 36 °F 55 °F 37 °F (1944)
Degree Days  
Heating Degree Days 9 1  
Month to date heating degree days 33  
Since 1 June heating degree days 157  
Since 1 July heating degree days 33  
Cooling Degree Days 0 4  
Month to date cooling degree days 81  
Year to date cooling degree days 156  
Since 1 June cooling degree days 140  
Growing Degree Days 6 (Base 50)    
Moisture  
Dew Point 46 °F    
Average Humidity 65    
Maximum Humidity 100    
Minimum Humidity 29    
Precipitation  
Precipitation 0.00 in 0.10 in 1.81 in (1991)
Month to date precipitation 1.79  
Year to date precipitation 14.75  
Sea Level Pressure  
Sea Level Pressure 30.02 in    
Wind  
Wind Speed 1 mph (South)    
Max Wind Speed 8 mph    
Max Gust Speed -    
Visibility 9 miles    
Events      
T = Trace of Precipitation, MM = Missing Value Source: NWS Daily Summary

Daily Weather History Graph

Daily Weather History Graph

Search for Another Location

Airport:

Trip Planner

Search our weather history database for the weather conditions in past years. The results will help you decide how hot, cold, wet, or windy it might be!

Date:

Astronomy

Jul. 21, 2013 Rise Set
Actual Time 6:13 AM EDT 9:16 PM EDT
Civil Twilight 5:38 AM EDT 9:51 PM EDT
Nautical Twilight 4:54 AM EDT 10:35 PM EDT
Astronomical Twilight 4:00 AM EDT 11:28 PM EDT
Moon 8:11 PM EDT (7/21) 4:59 AM EDT (7/21)
Length of Visible Light 16h 12m
Length of Day
15h 02m
Waxing Gibbous, 98% of the Moon is Illuminated
Jul 21
Waxing Gibbous
Jul 22
Full
Jul 29
Last Quarter
Aug 6
New
Aug 14
First Quarter

Hourly Weather History & Observations

Time (EDT) Temp. Dew Point Humidity Pressure Visibility Wind Dir Wind Speed Gust Speed Precip Events Conditions
12:15 AM 48.4 °F 46.4 °F 93% 30.01 in 10.0 mi Calm Calm - N/A   Clear
12:34 AM 48.4 °F 46.6 °F 93% 30.01 in 10.0 mi Calm Calm - N/A   Clear
12:55 AM 48.4 °F 46.0 °F 92% 30.01 in 10.0 mi Calm Calm - N/A   Clear
1:15 AM 45.9 °F 44.6 °F 95% 30.02 in 10.0 mi Calm Calm - N/A   Clear
1:34 AM 46.4 °F 46.4 °F 100% 30.02 in 10.0 mi Calm Calm - N/A   Clear
1:55 AM 44.6 °F 44.6 °F 100% 30.02 in 10.0 mi Calm Calm - N/A   Clear
2:15 AM 42.4 °F 42.1 °F 99% 30.03 in 10.0 mi Calm Calm - N/A   Clear
2:34 AM 42.6 °F 42.6 °F 100% 30.03 in 10.0 mi Calm Calm - N/A   Clear
2:55 AM 42.1 °F 42.1 °F 100% 30.02 in 1.8 mi Calm Calm - N/A   Mist
3:15 AM 40.3 °F 40.3 °F 100% 30.03 in 10.0 mi Calm Calm - N/A   Clear
3:34 AM 41.0 °F 41.0 °F 100% 30.03 in 1.8 mi Calm Calm - N/A   Mist
3:55 AM 40.3 °F 40.3 °F 100% 30.02 in 1.2 mi Calm Calm - N/A   Mist
4:15 AM 39.7 °F 39.7 °F 100% 30.02 in 0.8 mi Calm Calm - N/A   Mist
4:34 AM 39.6 °F 39.6 °F 100% 30.02 in 10.0 mi Calm Calm - N/A   Clear
4:55 AM 38.3 °F 38.3 °F 100% 30.02 in 1.8 mi Calm Calm - N/A   Mist
5:14 AM 38.3 °F 38.3 °F 100% 30.02 in 10.0 mi Calm Calm - N/A   Clear
5:34 AM 36.9 °F 36.9 °F 100% 30.03 in 2.0 mi Calm Calm - N/A   Clear
5:55 AM 38.3 °F 38.3 °F 100% 30.04 in 7.0 mi Calm Calm - N/A   Clear
6:14 AM 36.7 °F 36.7 °F 100% 30.04 in 10.0 mi Calm Calm - N/A   Clear
6:34 AM 38.3 °F 38.3 °F 100% 30.04 in 4.0 mi Calm Calm - N/A   Clear
6:55 AM 38.8 °F 38.8 °F 100% 30.04 in 10.0 mi Calm Calm - N/A   Clear
7:14 AM 41.0 °F 40.6 °F 99% 30.04 in 10.0 mi Calm Calm - N/A   Clear
7:35 AM 45.1 °F 45.1 °F 100% 30.04 in 10.0 mi Calm Calm - N/A   Clear
7:55 AM 48.4 °F 47.7 °F 97% 30.05 in 10.0 mi Calm Calm - N/A   Scattered Clouds
8:14 AM 50.7 °F 48.9 °F 94% 30.05 in 10.0 mi Calm Calm - N/A   Scattered Clouds
8:35 AM 53.6 °F 50.0 °F 88% 30.05 in 10.0 mi Calm Calm - N/A   Scattered Clouds
8:55 AM 55.9 °F 51.4 °F 85% 30.04 in 10.0 mi NE 3.5 mph - N/A   Scattered Clouds
9:14 AM 58.5 °F 52.5 °F 81% 30.04 in 10.0 mi East 4.6 mph - N/A   Clear
9:35 AM 61.0 °F 54.0 °F 78% 30.05 in 10.0 mi East 3.5 mph - N/A   Clear
9:55 AM 61.9 °F 52.9 °F 72% 30.05 in 10.0 mi SE 4.6 mph - N/A   Clear
10:14 AM 63.5 °F 52.9 °F 68% 30.06 in 10.0 mi East 4.6 mph - N/A   Clear
10:35 AM 65.8 °F 54.1 °F 66% 30.06 in 10.0 mi SSE 4.6 mph - N/A   Clear
10:55 AM 68.0 °F 54.3 °F 62% 30.06 in 10.0 mi Calm Calm - N/A   Clear
11:14 AM 68.5 °F 48.9 °F 49% 30.06 in 10.0 mi ESE 4.6 mph - N/A   Clear
11:35 AM 68.5 °F 50.4 °F 52% 30.05 in 10.0 mi South 5.8 mph - N/A   Mostly Cloudy
11:55 AM 69.3 °F 48.2 °F 47% 30.05 in 10.0 mi SE 4.6 mph - N/A   Scattered Clouds
12:14 PM 71.1 °F 47.3 °F 43% 30.05 in 10.0 mi Calm Calm - N/A   Clear
12:35 PM 73.6 °F 46.4 °F 38% 30.05 in 10.0 mi Calm Calm - N/A   Clear
12:54 PM 73.6 °F 46.6 °F 38% 30.04 in 10.0 mi SSE 3.5 mph - N/A   Mostly Cloudy
1:14 PM 73.6 °F 46.9 °F 39% 30.04 in 10.0 mi SW 4.6 mph - N/A   Overcast
1:35 PM 73.6 °F 43.9 °F 34% 30.04 in 10.0 mi SSW 3.5 mph - N/A   Overcast
1:54 PM 73.6 °F 43.5 °F 34% 30.04 in 10.0 mi West 4.6 mph - N/A   Overcast
2:14 PM 73.6 °F 41.4 °F 31% 30.04 in 10.0 mi SSW 4.6 mph - N/A   Overcast
2:35 PM 73.6 °F 41.5 °F 32% 30.04 in 10.0 mi SSW 4.6 mph - N/A   Mostly Cloudy
2:54 PM 74.7 °F 42.8 °F 32% 30.04 in 10.0 mi SSW 3.5 mph - N/A   Overcast
3:14 PM 73.6 °F 41.7 °F 32% 30.03 in 10.0 mi South 4.6 mph - N/A   Overcast
3:35 PM 74.1 °F 41.4 °F 31% 30.02 in 10.0 mi West 8.1 mph - N/A   Overcast
3:54 PM 76.1 °F 43.0 °F 31% 30.01 in 10.0 mi SE 3.5 mph - N/A   Scattered Clouds
4:15 PM 76.1 °F 42.3 °F 30% 30.01 in 10.0 mi Calm Calm - N/A   Clear
4:35 PM 76.8 °F 42.6 °F 29% 30.00 in 10.0 mi Calm Calm - N/A   Clear
4:54 PM 76.6 °F 42.1 °F 29% 30.00 in 10.0 mi SW 8.1 mph - N/A   Clear
5:14 PM 76.1 °F 43.9 °F 32% 29.99 in 10.0 mi SW 3.5 mph - N/A   Mostly Cloudy
5:35 PM 76.1 °F 45.7 °F 34% 29.99 in 10.0 mi SSW 5.8 mph - N/A   Mostly Cloudy
5:54 PM 75.7 °F 45.1 °F 34% 29.99 in 10.0 mi South 4.6 mph - N/A   Mostly Cloudy
6:15 PM 76.1 °F 44.1 °F 32% 29.97 in 10.0 mi WSW 3.5 mph - N/A   Scattered Clouds
6:35 PM 75.9 °F 44.8 °F 33% 29.96 in 10.0 mi SE 4.6 mph - N/A   Clear
6:54 PM 76.1 °F 45.0 °F 33% 29.96 in 10.0 mi SW 3.5 mph - N/A   Clear
7:15 PM 74.3 °F 46.8 °F 37% 29.97 in 10.0 mi Calm Calm - N/A   Clear
7:35 PM 73.6 °F 47.3 °F 39% 29.98 in 10.0 mi Calm Calm - N/A   Mostly Cloudy
7:54 PM 73.6 °F 50.0 °F 43% 29.98 in 10.0 mi SSW 3.5 mph - N/A   Scattered Clouds
8:15 PM 72.0 °F 48.7 °F 44% 29.98 in 10.0 mi Calm Calm - N/A   Clear
8:34 PM 69.8 °F 48.4 °F 46% 29.98 in 10.0 mi Calm Calm - N/A   Clear
8:54 PM 68.5 °F 49.8 °F 51% 29.98 in 10.0 mi Calm Calm - N/A   Clear
9:15 PM 68.0 °F 52.5 °F 58% 29.99 in 10.0 mi Calm Calm - N/A   Scattered Clouds
9:34 PM 68.2 °F 52.5 °F 57% 29.98 in 10.0 mi Calm Calm - N/A   Overcast
9:54 PM 68.5 °F 52.5 °F 57% 29.98 in 10.0 mi Calm Calm - N/A   Overcast
10:15 PM 68.5 °F 51.3 °F 54% 29.98 in 10.0 mi Calm Calm - N/A   Overcast
10:34 PM 66.0 °F 53.8 °F 65% 29.98 in 10.0 mi Calm Calm - N/A   Overcast
10:54 PM 68.5 °F 48.7 °F 49% 29.98 in 10.0 mi SE 6.9 mph - N/A   Overcast
11:15 PM 66.6 °F 53.8 °F 63% 29.99 in 10.0 mi ESE 6.9 mph - N/A   Overcast
11:34 PM 66.2 °F 55.0 °F 67% 29.99 in 10.0 mi SE 6.9 mph - N/A   Overcast
11:54 PM 64.2 °F 55.6 °F 73% 29.98 in 10.0 mi ESE 8.1 mph - N/A   Overcast